User: anonymous   Login
Location: Peebles
(55.6412°N, 3.1714°W)
Time: 00:50:50
(UTC+01:00)
Language:

Okean 3 - Orbit

View from above orbital plane
View from above orbital plane
View from above satellite
View from above satellite

Ground track
Ground track

The orbit data is extracted from the following two-line orbital elements,

1 21397U 91039A   22267.56767327  .00001218  00000-0  11196-3 0  9999
2 21397  82.5183 108.2157 0016016 274.0877  85.8513 14.93903143675975
Epoch (UTC): 24 September 2022 13:37:26
Eccentricity: 0.0016016
inclination: 82.5183°
perigee height: 574 km
apogee height: 597 km
right ascension of ascending node: 108.2157°
argument of perigee: 274.0877°
revolutions per day: 14.93903143
mean anomaly at epoch: 85.8513°
orbit number at epoch: 67597

The dashed part of the orbit path shows where the satellite is in the earth's shadow,  

DLR